Regional Weather Roundup
Issued by NWS

Home | Current Version | Previous Version | Graphics & Text | Print | Product List | Glossary On
Versions: 1 2 3 4 5 6 7 8 9 10 11 12 13 14 15 16 17 18 19 20 21 22 23 24 25 26 27 28 29 30 31 32 33 34 35 36 37 38 39 40 41 42 43 44 45 46 47 48 49 50
000
ASUS43 KLMK 210710
RWRKY
KENTUCKY REGIONAL WEATHER ROUNDUP
NATIONAL WEATHER SERVICE LOUISVILLE KY
200 AM EST SAT JAN 21 2017

NOTE "FAIR" INDICATES FEW OR NO CLOUDS BELOW 12,000 FEET
WITH NO SIGNIFICANT WEATHER AND/OR OBSTRUCTIONS TO VISIBILITY.

KYZ001>023-026-027-061>063-070>075-210800-
WESTERN AND SOUTH CENTRAL KENTUCKY

CITY           SKY/WX    TMP DP  RH WIND       PRES   REMARKS
PADUCAH        MOCLDY    58  51  78 SW7       29.67S
HENDERSON      CLOUDY    55  48  76 SW8       29.69R
OWENSBORO      MOCLDY    53  50  89 S5        29.71R
HOPKINSVILLE   CLOUDY    58  53  84 S3        29.73R
BOWLING GREEN  MOCLDY    58  51  78 S7        29.74S
GLASGOW        CLOUDY    57  50  78 S3        29.76S
$$

KYZ024-025-028>034-038-045-046-053-210800-
NORTH CENTRAL KENTUCKY

CITY           SKY/WX    TMP DP  RH WIND       PRES   REMARKS
LOUISVILLE/SDF MOCLDY    54  49  83 SE7       29.73R
LOUISVILLE/LOU PTCLDY    51  48  89 CALM      29.74R
FORT KNOX      PTCLDY    55  51  86 S8        29.72R
$$

KYZ035>037-039>044-047>052-055>060-089>105-210800-
NORTHEAST KENTUCKY

CITY           SKY/WX    TMP DP  RH WIND       PRES   REMARKS
LEXINGTON      PTCLDY    55  47  74 S9        29.77S
COVINGTON      MOCLDY    51  47  86 S7        29.74S
FRANKFORT      MOCLDY    53  46  77 SE3       29.74S
$$

KYZ054-064>069-076>088-106>120-210800-
SOUTHEAST KENTUCKY

CITY           SKY/WX    TMP DP  RH WIND       PRES   REMARKS
JACKSON        PTCLDY    54  47  77 SW5       29.82R
LONDON         MOCLDY    49  44  83 CALM      29.81S
SOMERSET       PTCLDY    54  46  76 S5        29.81R
MIDDLESBORO    PTCLDY    44  44 100 CALM      29.85S
MONTICELLO     CLOUDY    56  49  77 W9        29.81R
$$





USA.gov is the U.S. government's official web portal to all federal, state and local government web resources and services.